Flag for Brazil Weather past 2 weeks in Anápolis, Goiás, Brazil

Now
63 °F

Clear.


Feels Like: 63 °F
Forecast: 62 / 81 °F
Wind: 3 mph from East

Location: Brasilia Aeroporto

Current Time: Jul 23, 2014 at 5:33:02 AM

Latest Report: Jul 23, 2014 at 5:00 AM


Visibility: 10 mi

Pressure: 30.21 "Hg

Humidity: 59%

Dew point: 48 °F

Location of AnápolisLocation

Historic Weather in Anápolis — Graph

°F

Anápolis temperature yesterday

Maximum temperature yesterday: 79 °F (at 1:00 PM)
Minimum temperature yesterday: 61 °F (at 6:00 AM)
Average temperature yesterday: 68 °F

Past Weeks' High & Low Weather Summary

 TemperatureHumidityPressure
High84 °F (Jul 18, 2:00 PM)83% (Jul 18, 4:00 AM)30.33 "Hg (Jul 18, 4:00 AM)
Low54 °F (Jul 16, 6:00 AM)19% (Jul 18, 3:00 PM)30.09 "Hg (Jul 10, 3:00 PM)
Average70 °F52%30.22 "Hg
* Reported Jul 8 3:00 AM — Jul 23 3:00 AM, Anápolis, Weather by CustomWeather, © 2014

Note: Actual official high and low records may vary slightly from our data, if they occured in-between our weather recording intervals... More about our weather records

Advertising

Anápolis weather history for previous 24 hours

 ConditionsComfort  
Time TempWeatherWind HumidityBarometerVisibility
3:00 AM
Jul 23
63 °FClear.3 mph59%30.18 "Hg10 mi
2:00 AM63 °FClear.2 mph59%30.18 "Hg10 mi
1:00 AM64 °FClear.1 mph60%30.21 "Hg10 mi
12:00 AM64 °FClear.2 mph56%30.24 "Hg10 mi
11:00 PM
Jul 22
68 °FClear.2 mph53%30.24 "Hg10 mi
10:00 PM68 °FClear.6 mph53%30.24 "Hg10 mi
9:00 PM70 °FClear.7 mph50%30.24 "Hg10 mi
2:00 PM79 °FPassing clouds.13 mph37%30.18 "HgN/A
1:00 PM79 °FPassing clouds.13 mph37%30.21 "HgN/A
12:00 PM75 °FSunny.10 mph44%30.27 "Hg10 mi
11:00 AM73 °FSunny.14 mph47%30.30 "Hg10 mi
10:00 AM70 °FSunny.12 mph53%30.30 "Hg10 mi
9:00 AM66 °FSunny.10 mph60%30.30 "Hg10 mi
8:00 AM64 °FSunny.3 mph64%30.27 "Hg10 mi
7:00 AM61 °FSunny.3 mph68%30.24 "Hg10 mi
6:00 AM61 °FClear.2 mph77%30.21 "Hg10 mi
5:00 AM63 °FClear.2 mph64%30.21 "Hg10 mi
Weather by CustomWeather, © 2014

See weather overviewHow to use our weather pages